Tracking 29892 objects as of 21-Nov-2024
HD Live streaming from Space Station
objects crossing your sky now

DELTA 1 DEB

Track DELTA 1 DEB now!
10-day predictions


NORAD ID: 10188
Int'l Code: 1977-065S
Perigee: 530.7 km
Apogee: 1,521.3 km
Inclination: 29.1 °
Period: 105.5 minutes
Semi major axis: 7396 km
RCS: 0.6196 m2 (medium)
Launch date: July 14, 1977
Source: United States (US)
Launch site: AIR FORCE EASTERN TEST RANGE (AFETR)

Note: This is SATELLITE DEBRIS
Your satellite tracking list
Your tracking list is empty




NASA's NSSDC Master Catalog

Two Line Element Set (TLE):
1 10188U 77065S   24325.63178817  .00004591  00000-0  11277-2 0  9999
2 10188  29.0619 197.9301 0669601 147.1970 217.2034 13.64648246313082
Source of the keplerian elements: AFSPC